Cooperstown, ND

8:20 PM CDT on September 24, 2016 (GMT -0500)
Cooperstown

Weather History for KS32 - May, 2013

Change the Weather History Date:

Wednesday, May 8, 2013

  Actual Average (KJMS) Record (KJMS)
Temperature  
Mean Temperature 52 °F 52 °F  
Max Temperature 62 °F 66 °F 92 °F (1985)
Min Temperature 41 °F 39 °F 21 °F (1955)
Degree Days  
Heating Degree Days 14 13  
Month to date heating degree days 113  
Since 1 July heating degree days 8707  
Cooling Degree Days 0 0  
Month to date cooling degree days 0  
Year to date cooling degree days 2  
Growing Degree Days 2 (Base 50)    
Moisture  
Dew Point 41 °F    
Average Humidity 66    
Maximum Humidity 100    
Minimum Humidity 41    
Precipitation  
Precipitation 0.00 in 0.08 in 1.94 in (1995)
Month to date precipitation 0.59  
Year to date precipitation 3.48  
Sea Level Pressure  
Sea Level Pressure 30.03 in    
Wind  
Wind Speed 14 mph (NE)    
Max Wind Speed 23 mph    
Max Gust Speed 32 mph    
Visibility 9 miles    
Events      
T = Trace of Precipitation, MM = Missing Value Source: NWS Daily Summary

Daily Weather History Graph

Daily Weather History Graph

Search for Another Location

Airport or City:

Trip Planner

Search our weather history database for the weather conditions in past years. The results will help you decide how hot, cold, wet, or windy it might be!

Date:

Astronomy

May. 08, 2013 Rise Set
Actual Time 6:04 AM CDT 8:53 PM CDT
Civil Twilight 5:29 AM CDT 9:29 PM CDT
Nautical Twilight 4:44 AM CDT 10:14 PM CDT
Astronomical Twilight 3:50 AM CDT 11:08 PM CDT
Moon 5:19 AM CDT (5/8) 7:50 PM CDT (5/8)
Length of Visible Light 16h 00m
Length of Day
14h 49m
Waning Crescent, 2% of the Moon is Illuminated
May 8
Waning Crescent
May 9
New
May 17
First Quarter
May 24
Full
May 31
Last Quarter

Hourly Weather History & Observations

Time (CDT) Temp. Windchill Dew Point Humidity Pressure Visibility Wind Dir Wind Speed Gust Speed Precip Events Conditions
12:15 AM 57.2 °F - 42.8 °F 59% 29.90 in 10.0 mi SSW 10.4 mph - N/A   Mostly Cloudy
12:35 AM 55.4 °F - 44.6 °F 67% 29.91 in 10.0 mi SSW 13.8 mph - N/A   Partly Cloudy
12:55 AM 55.4 °F - 44.6 °F 67% 29.91 in 10.0 mi SSW 12.7 mph - N/A   Clear
1:15 AM 57.2 °F - 41.0 °F 55% 29.91 in 10.0 mi SSW 15.0 mph - N/A   Clear
1:35 AM 53.6 °F - 44.6 °F 72% 29.92 in 10.0 mi SSW 11.5 mph - N/A   Partly Cloudy
1:55 AM 53.6 °F - 44.6 °F 72% 29.92 in 10.0 mi SSW 11.5 mph - N/A   Mostly Cloudy
2:15 AM 51.8 °F - 44.6 °F 76% 29.92 in 10.0 mi South 11.5 mph - N/A   Scattered Clouds
2:35 AM 51.8 °F - 44.6 °F 76% 29.91 in 10.0 mi SSW 6.9 mph - N/A   Partly Cloudy
2:55 AM 50.0 °F - 44.6 °F 82% 29.91 in 10.0 mi West 5.8 mph - N/A   Clear
3:15 AM 48.2 °F - 44.6 °F 87% 29.92 in 10.0 mi Calm Calm - N/A   Clear
3:35 AM 44.6 °F 41.4 °F 41.0 °F 87% 29.92 in 10.0 mi SSE 5.8 mph - N/A   Clear
3:55 AM 46.4 °F 43.5 °F 44.6 °F 93% 29.92 in 10.0 mi SSW 5.8 mph - N/A   Clear
4:15 AM 46.4 °F 42.4 °F 42.8 °F 87% 29.92 in 10.0 mi South 8.1 mph - N/A   Clear
4:35 AM 44.6 °F 41.4 °F 42.8 °F 93% 29.92 in 10.0 mi SSW 5.8 mph - N/A   Clear
4:55 AM 44.6 °F 42.2 °F 42.8 °F 93% 29.92 in 10.0 mi SSW 4.6 mph - N/A   Clear
5:15 AM 42.8 °F 39.3 °F 42.8 °F 100% 29.93 in 10.0 mi SSE 5.8 mph - N/A   Partly Cloudy
5:35 AM 41.0 °F 39.0 °F 41.0 °F 100% 29.94 in 10.0 mi SE 3.5 mph - N/A   Clear
5:55 AM 44.6 °F - 44.6 °F 100% 29.95 in 10.0 mi Calm Calm - N/A   Clear
6:15 AM 42.8 °F 38.6 °F 42.8 °F 100% 29.96 in 10.0 mi North 6.9 mph - N/A   Partly Cloudy
6:35 AM 44.6 °F 40.2 °F 44.6 °F 100% 29.96 in 10.0 mi ENE 8.1 mph - N/A   Partly Cloudy
6:55 AM 48.2 °F - 46.4 °F 93% 29.97 in 10.0 mi NE 11.5 mph - N/A   Clear
7:15 AM 48.2 °F - 46.4 °F 93% 29.98 in 10.0 mi ENE 16.1 mph - N/A   Clear
7:35 AM 48.2 °F - 44.6 °F 87% 29.99 in 10.0 mi NE 12.7 mph - N/A   Clear
7:55 AM 48.2 °F - 44.6 °F 87% 30.00 in 10.0 mi NE 15.0 mph - N/A   Clear
8:15 AM 48.2 °F - 42.8 °F 82% 30.01 in 10.0 mi NNE 15.0 mph - N/A   Clear
8:35 AM 48.2 °F - 42.8 °F 82% 30.01 in 10.0 mi NNE 17.3 mph - N/A   Clear
8:55 AM 50.0 °F - 42.8 °F 76% 30.02 in 10.0 mi NNE 17.3 mph - N/A   Clear
9:15 AM 50.0 °F - 42.8 °F 76% 30.02 in 10.0 mi NNE 17.3 mph 21.9 mph N/A   Clear
9:35 AM 50.0 °F - 42.8 °F 76% 30.03 in 10.0 mi NE 17.3 mph - N/A   Clear
9:55 AM 53.6 °F - 44.6 °F 72% 30.03 in 10.0 mi NNE 17.3 mph - N/A   Clear
10:15 AM 53.6 °F - 42.8 °F 67% 30.04 in 10.0 mi NNE 16.1 mph 23.0 mph N/A   Clear
10:35 AM 53.6 °F - 44.6 °F 72% 30.04 in 10.0 mi NNE 17.3 mph - N/A   Clear
10:55 AM 55.4 °F - 44.6 °F 67% 30.04 in 10.0 mi NE 17.3 mph 23.0 mph N/A   Partly Cloudy
11:15 AM 55.4 °F - 44.6 °F 67% 30.05 in 10.0 mi NE 18.4 mph - N/A   Partly Cloudy
11:35 AM 57.2 °F - 44.6 °F 63% 30.05 in 10.0 mi NNE 18.4 mph 24.2 mph N/A   Partly Cloudy
11:55 AM 59.0 °F - 44.6 °F 59% 30.05 in 10.0 mi NNE 20.7 mph - N/A   Scattered Clouds
12:15 PM 59.0 °F - 44.6 °F 59% 30.06 in 10.0 mi NNE 19.6 mph - N/A   Scattered Clouds
12:35 PM 59.0 °F - 46.4 °F 63% 30.06 in 10.0 mi NNE 17.3 mph 24.2 mph N/A   Partly Cloudy
12:55 PM 59.0 °F - 44.6 °F 59% 30.06 in 10.0 mi NNE 19.6 mph 28.8 mph N/A   Clear
1:15 PM 60.8 °F - 44.6 °F 55% 30.06 in 10.0 mi NE 21.9 mph 26.5 mph N/A   Clear
1:35 PM 62.6 °F - 44.6 °F 52% 30.06 in 8.0 mi NNE 20.7 mph - N/A   Clear
1:55 PM 60.8 °F - 44.6 °F 55% 30.06 in 6.0 mi NE 19.6 mph - N/A   Haze
2:15 PM 62.6 °F - 44.6 °F 52% 30.06 in 6.0 mi NNE 18.4 mph 25.3 mph N/A   Haze
2:35 PM 62.6 °F - 44.6 °F 52% 30.07 in 7.0 mi NE 20.7 mph 26.5 mph N/A   Clear
2:55 PM 62.6 °F - 44.6 °F 52% 30.06 in 6.0 mi NNE 19.6 mph 25.3 mph N/A   Haze
3:15 PM 62.6 °F - 44.6 °F 52% 30.07 in 5.0 mi NNE 19.6 mph 25.3 mph N/A   Haze
3:35 PM 62.6 °F - 44.6 °F 52% 30.07 in 5.0 mi NNE 19.6 mph 26.5 mph N/A   Haze
3:55 PM 62.6 °F - 44.6 °F 52% 30.07 in 5.0 mi NE 20.7 mph 25.3 mph N/A   Haze
4:15 PM 62.6 °F - 44.6 °F 52% 30.07 in 5.0 mi NNE 20.7 mph 28.8 mph N/A   Haze
4:35 PM 62.6 °F - 44.6 °F 52% 30.06 in 5.0 mi NNE 20.7 mph 26.5 mph N/A   Haze
4:55 PM 62.6 °F - 44.6 °F 52% 30.07 in 5.0 mi NE 21.9 mph 27.6 mph N/A   Haze
5:15 PM 60.8 °F - 41.0 °F 48% 30.07 in 6.0 mi NNE 23.0 mph 32.2 mph N/A   Haze
5:35 PM 59.0 °F - 41.0 °F 51% 30.07 in 5.0 mi NNE 21.9 mph 27.6 mph N/A   Haze
5:55 PM 59.0 °F - 39.2 °F 48% 30.08 in 5.0 mi NNE 20.7 mph 27.6 mph N/A   Haze
6:15 PM 59.0 °F - 37.4 °F 45% 30.08 in 7.0 mi NNE 21.9 mph 32.2 mph N/A   Clear
6:35 PM 59.0 °F - 37.4 °F 45% 30.08 in 5.0 mi NNE 21.9 mph - N/A   Haze
6:55 PM 57.2 °F - 35.6 °F 44% 30.08 in 4.0 mi North 21.9 mph - N/A   Haze
7:15 PM 55.4 °F - 33.8 °F 44% 30.09 in 5.0 mi NNE 23.0 mph - N/A   Haze
7:35 PM 55.4 °F - 32.0 °F 41% 30.09 in 10.0 mi NNE 21.9 mph 25.3 mph N/A   Clear
7:55 PM 53.6 °F - 32.0 °F 44% 30.10 in 10.0 mi NNE 21.9 mph 27.6 mph N/A   Clear
8:15 PM 53.6 °F - 32.0 °F 44% 30.11 in 7.0 mi NNE 23.0 mph 28.8 mph N/A   Clear
8:35 PM 50.0 °F - 32.0 °F 50% 30.11 in 9.0 mi NNE 17.3 mph 24.2 mph N/A   Clear
8:55 PM 50.0 °F - 32.0 °F 50% 30.12 in 7.0 mi NNE 17.3 mph - N/A   Clear
9:15 PM 48.2 °F - 32.0 °F 54% 30.13 in 8.0 mi NNE 18.4 mph 24.2 mph N/A   Clear
9:35 PM 48.2 °F - 30.2 °F 50% 30.13 in 7.0 mi NNE 19.6 mph 26.5 mph N/A   Clear
9:55 PM 46.4 °F 39.0 °F 30.2 °F 53% 30.14 in 10.0 mi NNE 19.6 mph 23.0 mph N/A   Clear
10:15 PM 46.4 °F 38.7 °F 28.4 °F 50% 30.14 in 10.0 mi NNE 20.7 mph 25.3 mph N/A   Clear
10:55 PM 46.4 °F 38.7 °F 28.4 °F 50% 30.15 in 10.0 mi NNE 20.7 mph - N/A   Partly Cloudy
11:15 PM 44.6 °F 36.4 °F 30.2 °F 57% 30.15 in 8.0 mi NNE 20.7 mph 24.2 mph N/A   Partly Cloudy
11:35 PM 44.6 °F 36.4 °F 30.2 °F 57% 30.14 in 7.0 mi NNE 20.7 mph 24.2 mph N/A   Clear
11:55 PM 44.6 °F 36.9 °F 30.2 °F 57% 30.15 in 7.0 mi NNE 18.4 mph - N/A   Clear